Location: Bonaustraße
(48.4603°N, 11.9280°E)
Time: 20:34:16
(UTC+01:00)

N. Korean satellite - Visible Passes

Search period start: 01 December 2021 00:00
Search period end: 11 December 2021 00:00
Orbit: 447 x 495 km, 97.3° (Epoch: 01 December)

Date Brightness Start Highest point End Pass type
(mag) Time Alt. Az. Time Alt. Az. Time Alt. Az.
01 Dec 6.2 05:42:39 10° N 05:46:03 78° WNW 05:49:25 10° SSW visible
01 Dec 10.3 17:56:23 10° W 17:56:59 10° W 17:57:34 10° W visible
02 Dec 7.5 05:14:15 10° NNE 05:17:32 44° E 05:20:46 10° S visible
02 Dec 8.1 06:48:30 10° NNW 06:50:23 14° WNW 06:52:16 10° W visible
02 Dec 9.4 17:25:29 10° SW 17:28:14 21° W 17:30:59 10° NW visible
03 Dec 9.1 04:46:17 10° NE 04:48:52 20° E 04:51:28 10° SE visible
03 Dec 7.3 06:19:10 10° N 06:22:06 28° WNW 06:25:01 10° SW visible
03 Dec 7.9 16:56:12 10° S 16:59:35 44° W 17:02:58 10° NNW visible
04 Dec 6.3 05:50:21 10° N 05:53:42 61° WNW 05:57:02 10° SSW visible
05 Dec 7.0 05:21:50 10° NNE 05:25:11 55° E 05:28:30 10° S visible
05 Dec 8.3 06:56:35 10° NW 06:57:56 12° WNW 06:59:16 10° W visible
05 Dec 9.6 17:33:30 10° SW 17:35:55 17° W 17:38:18 10° NW visible
06 Dec 8.7 04:53:40 10° NE 04:56:32 25° E 04:59:21 10° SSE visible
06 Dec 7.5 06:26:54 10° NNW 06:29:39 23° WNW 06:32:22 10° WSW visible
06 Dec 8.4 17:03:57 10° SSW 17:07:12 35° W 17:10:27 10° NNW visible
07 Dec 9.8 04:26:23 10° ENE 04:27:44 12° E 04:29:06 10° ESE visible
07 Dec 6.5 05:57:56 10° N 06:01:14 48° WNW 06:04:30 10° SSW visible
08 Dec 6.6 05:29:19 10° NNE 05:32:42 71° ESE 05:36:04 10° S visible
08 Dec 9.7 17:41:33 10° SW 17:43:29 14° W 17:45:25 10° WNW visible
09 Dec 8.3 05:01:00 10° NNE 05:04:03 30° E 05:07:04 10° SSE visible
09 Dec 7.8 06:34:35 10° NNW 06:37:04 19° WNW 06:39:33 10° WSW visible
09 Dec 8.8 17:11:39 10° SSW 17:14:43 29° W 17:17:46 10° NW visible
10 Dec 9.5 04:35:20 15° E 04:35:20 15° E 04:37:14 10° SE visible
10 Dec 7.1 06:05:28 10° N 06:09:28 33° WSW 06:11:49 10° SW visible
